Regional Weather Roundup
Issued by NWS

Home | Current Version | Previous Version | Graphics & Text | Print | Product List | Glossary On
Versions: 1 2 3 4 5 6 7 8 9 10 11 12 13 14 15 16 17 18 19 20 21 22 23 24 25 26 27 28 29 30 31 32 33 34 35 36 37 38 39 40 41 42 43 44
000
ASUS43 KDMX 281107
RWRIA

WEATHER ROUNDUP FOR IOWA
NATIONAL WEATHER SERVICE DES MOINES IA
500 AM CST SUN DEC 28 2014

NOTE: "FAIR" INDICATES FEW OR NO CLOUDS BELOW 12,000 FEET WITH NO
SIGNIFICANT WEATHER AND/OR OBSTRUCTIONS TO VISIBILITY.

* - THESE STATIONS ARE NOT NWS STATIONS...THUS NOT UNDER NWS
QUALITY CONTROL.  THEY ALSO DO NOT REPORT WEATHER SUCH
AS PRECIPITATION OR FOG.

IAZ001>003-012>014-020>022-031>034-043>046-281200-
   NORTHWEST IOWA

CITY           SKY/WX    TMP DP  RH WIND       PRES   REMARKS
CARROLL *      CLEAR     10   9  92 CALM      30.11F
CHEROKEE *     CLEAR      5   5 100 CALM      30.11S
DENISON *      CLEAR     12  12 100 CALM      30.09F
LE MARS *      PTCLDY     5   3  92 S5        30.11F WCI  -4
ORANGE CITY *  CLEAR      9   5  85 CALM      30.08S
SHELDON *      CLEAR      1   0  92 CALM      30.07F
SIOUX CITY     PTCLDY     6   2  83 E3        30.13S
SPENCER        CLEAR      6   2  83 CALM      30.09F
STORM LAKE *   CLEAR     12   9  85 SW12      30.08F WCI  -2
$$

IAZ055>058-069>071-079>083-090>094-281200-
   SOUTHWEST IOWA

CITY           SKY/WX    TMP DP  RH WIND       PRES   REMARKS
ATLANTIC *     CLEAR     14  12  92 CALM      30.14F
AUDUBON *      CLEAR     12   9  85 SE3       30.12F
CLARINDA *     CLEAR     14  14 100 CALM      30.20F
COUNCIL BLFS * CLEAR     18  16  93 S7        30.12F WCI   8
CRESTON *      CLEAR     16  14  93 SW7       30.16F WCI   6
HARLAN  *      CLEAR     12  12 100 SW5       30.17F WCI   4
LAMONI         CLEAR     16  13  88 W6        30.17F WCI   7
RED OAK *      CLEAR     16  14  93 SW6       30.17F WCI   7
SHENANDOAH *   CLEAR     18  16  93 S5        30.18F WCI  11
$$

IAZ047>049-059>061-072>074-084-281200-
   CENTRAL IOWA

CITY           SKY/WX    TMP DP  RH WIND       PRES   REMARKS
AMES           CLEAR     15  11  83 S3        30.16F
ANKENY *       CLEAR     16  12  86 SW3       30.18S
CHARITON *     CLEAR     18  14  86 SW5       30.17F WCI  11
DES MOINES     CLEAR     17  12  80 S3        30.18F
GRINNELL*      CLEAR     14  12  92 SW6       30.17F WCI   5
KNOXVILLE *    CLEAR     18  14  86 SW7       30.17F WCI   8
MARSHALLTOWN   CLEAR     14  11  87 SW5       30.15F WCI   6
PELLA *        CLEAR     18  16  93 CALM      30.20F
PERRY *          N/A     14  12  92 S7        30.15F WCI   4
$$

IAZ004>006-015-016-023>025-035-036-281200-
   NORTH CENTRAL IOWA

CITY           SKY/WX    TMP DP  RH WIND       PRES   REMARKS
ALGONA *       CLEAR      7   3  85 S8        30.11F WCI  -6
CLARION *      CLEAR      7   5  92 S7        30.12F WCI  -5
ESTHERVILLE    CLEAR      9   6  88 SW8       30.08F WCI  -3
FORT DODGE *   CLEAR      9   5  85 CALM      30.13F
MASON CITY     CLEAR      6   3  87 SW7       30.12F WCI  -6
FOREST CITY *  CLEAR     10   5  79 S3        30.10F
IOWA FALLS *     N/A     14  12  92 SW3       30.15S
$$

IAZ007>011-017>019-026>030-037>042-050>054-066-281200-
   NORTHEAST IOWA

CITY           SKY/WX    TMP DP  RH WIND       PRES   REMARKS
CEDAR RAPIDS   CLEAR     14  12  92 SW6       30.16F WCI   5
CHARLES CITY * PTCLDY     9   7  92 S6        30.14S WCI  -1
CLINTON *      CLEAR     16  12  86 W8        30.20F WCI   5
DECORAH *      CLEAR     12  10  92 CALM      30.11S
DUBUQUE        CLEAR     16  13  88 W8        30.14S WCI   5
MONTICELLO *   CLEAR     18  16  93 W7        30.16F WCI   8
OELWEIN *      CLEAR     14  10  85 CALM      30.15S
WATERLOO       CLEAR     13  10  88 SW6       30.16S WCI   4
$$

IAZ064-065-067-068-078-281200-
   EAST CENTRAL IOWA

CITY           SKY/WX    TMP DP  RH WIND       PRES   REMARKS
DAVENPORT      CLEAR     17  13  84 W8        30.18F WCI   7
IOWA CITY      CLEAR     16  13  88 W5        30.20F WCI   9
MT. PLEASANT * CLEAR     21  18  86 CALM      30.20S
MUSCATINE *    CLEAR     21  16  79 NW8       30.21F WCI  12
QUAD CITIES    CLEAR     18  14  84 SW3       30.20S
$$

IAZ062-063-075>077-085>089-095>099-281200-
   SOUTHEAST IOWA

CITY           SKY/WX    TMP DP  RH WIND       PRES   REMARKS
BURLINGTON     PTCLDY    25  19  78 W5        30.20F WCI  19
FAIRFIELD *    CLEAR     19  18  93 W6        30.20S WCI  11
FORT MADISON * MOCLDY    27  21  80 W3        30.22S
KEOKUK *       MOCLDY    27  21  80 NW7       30.21S WCI  19
OSKALOOSA *      N/A     16  14  93 W7        30.19F WCI   6
CENTERVILLE *  CLEAR     18  18 100 SW6       30.21R WCI   9
OTTUMWA        CLEAR     17  13  84 W6        30.19F WCI   9
WASHINGTON *   CLEAR     19  18  93 W5        30.19F WCI  13
$$

ABBREVIATIONS USED IN REMARKS
   TC - TEMPERATURES IN CELSIUS
  WCI - WIND CHILL INDEX
   HX - HEAT INDEX
  VSB - VISIBILITY
$$




USA.gov is the U.S. government's official web portal to all federal, state and local government web resources and services.